Вернуться в каталог

IMPULSE-3 MIRA

АктивенВоенныеSSO
NORAD 66687·PAYLOAD·🇺🇸 United States

Запущен Nov 28, 2025 с Vandenberg Space Force Base

Loading…

Ближайшие Пролёты (ближайшие 24 часа)

TLE

СвежийSource: Space-Track

Эпоха: Sep 14, 2026, 22:14 UTC

1 66687U 25276X   26257.92691504  .00010651  00000-0  46032-3 0  9994
2 66687  97.4183 330.4155 0004119 169.5345 190.5979 15.22645973 44075

Отслеживайте IMPULSE-3 MIRA в реальном времени с AllMySat

Download on the App Store